Prescott, AZ

2:02 AM MST on October 17, 2019 (GMT -0700)
Love

Weather History for KPRC - August, 2019

Change the Weather History Date:

Tuesday, August 20, 2019

  Actual Average Record
Temperature  
Mean Temperature 78 °F 73 °F  
Max Temperature 97 °F 86 °F 97 °F (2009)
Min Temperature 59 °F 60 °F 50 °F (1979)
Degree Days  
Heating Degree Days 0    
Month to date heating degree days 0  
Since 1 July heating degree days 0  
Cooling Degree Days 13    
Month to date cooling degree days 250  
Year to date cooling degree days 818  
Growing Degree Days 28 (Base 50)    
Moisture  
Dew Point 32 °F    
Average Humidity 21    
Maximum Humidity 46    
Minimum Humidity 8    
Precipitation  
Precipitation 0.00 in 0.09 in 1.40 in (1957)
Month to date precipitation 0.30 1.78  
Year to date precipitation 8.11 8.82  
Sea Level Pressure  
Sea Level Pressure 29.87 in    
Wind  
Wind Speed 5 mph ()    
Max Wind Speed 18 mph    
Max Gust Speed 24 mph    
Visibility 10.0 miles    
Events      
T = Trace of Precipitation, MM = Missing Value Source: Averaged Metar Reports

Daily Weather History Graph

Daily Weather History Graph

Search for Another Location

Airport or City:

Astronomy

Aug. 20, 2019 Rise Set
Actual Time 5:53 AM MST 7:11 PM MST
Civil Twilight 5:27 AM MST 7:38 PM MST
Nautical Twilight 4:55 AM MST 8:09 PM MST
Astronomical Twilight 4:23 AM MST 8:42 PM MST
Moon 10:13 PM MST (8/20) 10:24 AM MST (8/20)
Length of Visible Light 14h 10m
Length of Day
13h 17m
Waning Gibbous, 77% of the Moon is Illuminated
Aug 20
Waning Gibbous
Aug 23
Last Quarter
Aug 30
New
Sep 5
First Quarter
Sep 13
Full

Hourly Weather History & Observations

Time (MST) Temp. Dew Point Humidity Pressure Visibility Wind Dir Wind Speed Gust Speed Precip Events Conditions
12:53 AM 69.1 °F 35.1 °F 29% 29.87 in 10.0 mi South 4.6 mph - N/A   Clear
1:53 AM 66.0 °F 35.1 °F 32% 29.88 in 10.0 mi South 5.8 mph - N/A   Clear
2:53 AM 66.0 °F 33.1 °F 29% 29.88 in 10.0 mi South 4.6 mph - N/A   Clear
3:53 AM 64.0 °F 34.0 °F 33% 29.90 in 10.0 mi SSW 8.1 mph - N/A   Clear
4:53 AM 61.0 °F 37.0 °F 41% 29.91 in 10.0 mi South 6.9 mph - N/A   Clear
5:53 AM 59.0 °F 37.9 °F 46% 29.93 in 10.0 mi SSW 6.9 mph - N/A   Clear
6:53 AM 64.9 °F 39.0 °F 39% 29.93 in 10.0 mi South 6.9 mph - N/A   Clear
7:53 AM 73.9 °F 39.9 °F 29% 29.93 in 10.0 mi Calm Calm - N/A   Clear
8:53 AM 82.0 °F 33.1 °F 17% 29.93 in 10.0 mi Calm Calm - N/A   Clear
9:53 AM 86.0 °F 30.9 °F 14% 29.91 in 10.0 mi Calm Calm - N/A   Clear
10:53 AM 89.1 °F 28.0 °F 11% 29.91 in 10.0 mi Calm Calm - N/A   Clear
11:53 AM 93.0 °F 24.1 °F 8% 29.89 in 10.0 mi SSE 8.1 mph - N/A   Clear
12:53 PM 95.0 °F 25.0 °F 8% 29.86 in 10.0 mi Variable 6.9 mph - N/A   Clear
1:53 PM 96.1 °F 27.0 °F 9% 29.85 in 10.0 mi Calm Calm - N/A   Clear
2:53 PM 95.0 °F 27.0 °F 9% 29.83 in 10.0 mi SSE 8.1 mph - N/A   Clear
3:53 PM 96.1 °F 25.0 °F 8% 29.81 in 10.0 mi WSW 12.7 mph 16.1 mph N/A   Clear
4:53 PM 93.9 °F 26.1 °F 9% 29.82 in 10.0 mi SW 10.4 mph 24.2 mph N/A   Clear
5:53 PM 91.9 °F 27.0 °F 10% 29.82 in 10.0 mi SW 15.0 mph 20.7 mph N/A   Clear
6:53 PM 89.1 °F 28.9 °F 12% 29.83 in 10.0 mi West 10.4 mph - N/A   Clear
7:53 PM 82.9 °F 30.0 °F 15% 29.83 in 10.0 mi WSW 6.9 mph - N/A   Clear
8:53 PM 77.0 °F 34.0 °F 21% 29.84 in 10.0 mi SSW 6.9 mph - N/A   Clear
9:53 PM 73.0 °F 34.0 °F 24% 29.85 in 10.0 mi SSW 8.1 mph - N/A   Clear
10:53 PM 70.0 °F 34.0 °F 27% 29.85 in 10.0 mi SSW 6.9 mph - N/A   Clear
11:53 PM 66.0 °F 37.0 °F 34% 29.85 in 10.0 mi SSW 3.5 mph - N/A   Clear